Карточка аэропорта UIUU

Внимание!
Информация на этой странице в стадии наполнения.
Если вы не увидели какой-то информации, или заметили неточность - пожалуйста сообщите нам!
Спасибо!
Команда RU-STAFF
Название аэропортаМухино
Название аэропорта (англ.)Mukhino
Превышение1699 ft. (517.9 m.)
Координаты51°48.45', 107°26.4'
Высота перехода1800m
Эшелон переходаFL090
Коды ответчика2701-2717
Зона ОрВДИркутск РПИ (UIII)
Данные METARUIUU 211130Z 32002MPS 9999 BKN028CB 05/M01 Q1013 R26/CLRD60 NOSIG RMK MT OBSC QFE715/0954
Проноз погоды (TAF)UIUU 211100Z 2112/2212 32010G17MPS 9999 BKN020CB TEMPO 2112/2206 02006G12MPS 1200 SHSN BKN007CB
NOTAMshow/hide NOTAM
AWOS   TABLE

Информация о ВПП

ВПП Длина ВПП (м.) Покрытие Курс ВПП Частота ILS
263400Цементобетон263110.3
083400Цементобетон83111.3

Диспетчерские позиции

Позывной Наименование органа УВД Частота
UIUU_TWRУлан-Удэ-Вышка118.200
UIUU_APPУлан-Удэ-Подход129.300



Спутниковое изображение